Weather History for Lynchburg, VA

Change the Weather History Date:

Thursday, May 10, 2012

  Actual Average Record
Temperature  
Mean Temperature 59 °F 62 °F  
Max Temperature 70 °F 74 °F 94 °F (1896)
Min Temperature 47 °F 49 °F 33 °F (1966)
Degree Days  
Heating Degree Days 6 5  
Month to date heating degree days 11 55  
Since 1 July heating degree days 3493 4378  
Cooling Degree Days 0 1  
Month to date cooling degree days 37 10  
Year to date cooling degree days 66 28  
Growing Degree Days 8 (Base 50)    
Moisture  
Dew Point 43 °F    
Average Humidity 64    
Maximum Humidity 100    
Minimum Humidity 28    
Precipitation  
Precipitation 0.00 in 0.12 in 1.22 in (1990)
Month to date precipitation 0.50 1.13  
Year to date precipitation 13.55 14.09  
Snow  
Snow 0.00 in - - ()
Month to date snowfall 0.0  
Since 1 July snowfall 8.5  
Snow Depth 0.00 in    
Sea Level Pressure  
Sea Level Pressure 29.81 in    
Wind  
Wind Speed 4 mph (WNW)    
Max Wind Speed 12 mph    
Max Gust Speed 22 mph    
Visibility 9 miles    
Events      
T = Trace of Precipitation, MM = Missing Value Source: NWS Daily Summary

Daily Weather History Graph

Daily Weather History Graph

Search for Another Location

Airport:

Trip Planner

Search our weather history database for the weather conditions in past years. The results will help you decide how hot, cold, wet, or windy it might be!

Date:

Astronomy

May. 10, 2012 Rise Set
Actual Time 6:12 AM EDT 8:14 PM EDT
Civil Twilight 5:43 AM EDT 8:43 PM EDT
Nautical Twilight 5:08 AM EDT 9:18 PM EDT
Astronomical Twilight 4:30 AM EDT 9:57 PM EDT
Moon 12:11 AM EDT (5/10) 10:34 AM EDT (5/10)
Length of Visible Light 15h 00m
Length of Day
14h 02m
Waning Gibbous, 73% of the Moon is Illuminated
May 10
Waning Gibbous
May 12
Last Quarter
May 20
New
May 28
First Quarter
Jun 4
Full

Hourly Weather History & Observations

Time (EDT) Temp. Dew Point Humidity Pressure Visibility Wind Dir Wind Speed Gust Speed Precip Events Conditions
12:54 AM 51.1 °F 50.0 °F 96% 29.73 in 10.0 mi Calm Calm - N/A   Partly Cloudy
1:21 AM 50.0 °F 48.2 °F 94% 29.74 in 1.8 mi Calm Calm - N/A   Partly Cloudy
1:29 AM 48.2 °F 46.4 °F 93% 29.74 in 1.2 mi Calm Calm - N/A   Partly Cloudy
1:34 AM 48.2 °F 48.2 °F 100% 29.73 in 2.5 mi Calm Calm - N/A   Partly Cloudy
1:41 AM 48.2 °F 48.2 °F 100% 29.73 in 6.0 mi Calm Calm - N/A   Partly Cloudy
1:54 AM 48.9 °F 48.0 °F 97% 29.71 in 9.0 mi Calm Calm - N/A   Clear
2:54 AM 50.0 °F 48.0 °F 93% 29.71 in 10.0 mi Calm Calm - N/A   Clear
3:54 AM 48.9 °F 46.9 °F 93% 29.72 in 10.0 mi Calm Calm - N/A   Clear
4:54 AM 48.9 °F 46.0 °F 90% 29.73 in 10.0 mi Calm Calm - N/A   Clear
5:54 AM 46.9 °F 46.0 °F 97% 29.74 in 10.0 mi West 3.5 mph - N/A   Clear
6:54 AM 50.0 °F 45.0 °F 83% 29.77 in 10.0 mi SW 3.5 mph - N/A   Clear
7:54 AM 55.0 °F 46.9 °F 74% 29.79 in 10.0 mi WSW 4.6 mph - N/A   Clear
8:54 AM 57.9 °F 46.9 °F 67% 29.81 in 10.0 mi West 5.8 mph - N/A   Clear
9:54 AM 62.1 °F 45.0 °F 53% 29.81 in 10.0 mi West 10.4 mph 16.1 mph N/A   Partly Cloudy
10:54 AM 63.0 °F 41.0 °F 45% 29.82 in 10.0 mi NNW 9.2 mph 19.6 mph N/A   Partly Cloudy
11:54 AM 64.0 °F 43.0 °F 46% 29.83 in 10.0 mi West 8.1 mph - N/A   Mostly Cloudy
12:54 PM 64.9 °F 41.0 °F 42% 29.83 in 10.0 mi Variable 4.6 mph - N/A   Mostly Cloudy
1:54 PM 68.0 °F 41.0 °F 37% 29.82 in 10.0 mi NNW 8.1 mph - N/A   Mostly Cloudy
2:54 PM 64.9 °F 37.9 °F 37% 29.83 in 10.0 mi NW 4.6 mph - N/A   Mostly Cloudy
3:54 PM 69.1 °F 39.0 °F 33% 29.82 in 10.0 mi Variable 5.8 mph - N/A   Mostly Cloudy
4:54 PM 66.9 °F 36.0 °F 32% 29.83 in 10.0 mi NW 3.5 mph - N/A   Mostly Cloudy
5:54 PM 69.1 °F 35.1 °F 29% 29.84 in 10.0 mi WNW 6.9 mph - N/A   Mostly Cloudy
6:54 PM 66.2 °F 35.6 °F 32% 29.87 in 10.0 mi NW 3.5 mph - N/A   Partly Cloudy
7:54 PM 60.1 °F 43.0 °F 53% 29.89 in 10.0 mi Calm Calm - N/A   Clear
8:54 PM 55.9 °F 39.9 °F 55% 29.92 in 10.0 mi Calm Calm - N/A   Clear
9:54 PM 54.0 °F 39.9 °F 59% 29.95 in 10.0 mi NW 4.6 mph - N/A   Clear
10:54 PM 55.0 °F 37.9 °F 53% 29.97 in 10.0 mi Calm Calm - N/A   Partly Cloudy
11:54 PM 53.1 °F 39.0 °F 59% 30.00 in 10.0 mi Calm Calm - N/A   Clear